Time,TemperatureF,DewpointF,PressureIn,WindDirection,WindDirectionDegrees,WindSpeedMPH,WindSpeedGustMPH,Humidity,HourlyPrecipIn,Conditions,Clouds,dailyrainin,SoftwareType,DateUTC
2013-06-22 00:01:00,61.9,25.7,30.11,SE,129,0.0,0.0,25,0.00,,FEW045,0.00,VWS V14.01,2013-06-22 04:01:00,
2013-06-22 00:02:00,61.7,26.5,30.11,SE,129,0.0,0.0,26,0.00,,FEW045,0.00,VWS V14.01,2013-06-22 04:02:00,
2013-06-22 00:08:00,61.7,26.5,30.11,SE,129,0.0,0.0,26,0.00,,FEW045,0.00,VWS V14.01,2013-06-22 04:08:00,
2013-06-22 00:13:00,61.9,27.6,30.11,SE,129,0.0,0.0,27,0.00,,FEW045,0.00,VWS V14.01,2013-06-22 04:13:00,
2013-06-22 00:18:00,61.9,27.6,30.11,SE,129,0.0,0.0,27,0.00,,FEW045,0.00,VWS V14.01,2013-06-22 04:18:00,
2013-06-22 00:23:00,62.1,26.8,30.11,SE,129,0.0,0.0,26,0.00,,FEW045,0.00,VWS V14.01,2013-06-22 04:23:00,
2013-06-22 00:28:00,62.1,27.7,30.11,SE,129,0.0,0.0,27,0.00,,FEW045,0.00,VWS V14.01,2013-06-22 04:28:00,
2013-06-22 00:33:00,61.9,28.4,30.11,SE,129,0.0,0.0,28,0.00,,FEW045,0.00,VWS V14.01,2013-06-22 04:33:00,
2013-06-22 00:38:00,61.9,28.4,30.11,SE,129,0.0,0.0,28,0.00,,FEW045,0.00,VWS V14.01,2013-06-22 04:38:00,
2013-06-22 00:43:00,61.7,27.4,30.11,SE,129,0.0,0.0,27,0.00,,FEW045,0.00,VWS V14.01,2013-06-22 04:43:00,
2013-06-22 00:48:00,61.7,29.1,30.11,SE,129,0.0,0.0,29,0.00,,FEW045,0.00,VWS V14.01,2013-06-22 04:48:00,
2013-06-22 00:53:00,62.1,28.6,30.11,SE,129,0.0,0.0,28,0.00,,FEW045,0.00,VWS V14.01,2013-06-22 04:53:00,
2013-06-22 00:58:00,62.4,28.9,30.11,SE,129,0.0,0.0,28,0.00,,FEW045,0.00,VWS V14.01,2013-06-22 04:58:00,
2013-06-22 01:03:00,62.6,27.3,30.11,SE,129,0.0,0.0,26,0.00,,SCT046,0.00,VWS V14.01,2013-06-22 05:03:00,
2013-06-22 01:08:00,62.8,26.5,30.11,SE,129,0.0,0.0,25,0.00,,SCT046,0.00,VWS V14.01,2013-06-22 05:08:00,
2013-06-22 01:13:00,62.6,26.3,30.11,SE,129,0.0,0.0,25,0.00,,SCT046,0.00,VWS V14.01,2013-06-22 05:13:00,
2013-06-22 01:19:00,62.2,27.0,30.11,SE,129,0.0,0.0,26,0.00,,SCT046,0.00,VWS V14.01,2013-06-22 05:19:00,
2013-06-22 01:24:00,61.9,26.6,30.11,SE,129,0.0,0.0,26,0.00,,SCT046,0.00,VWS V14.01,2013-06-22 05:24:00,
2013-06-22 01:29:00,61.5,28.1,30.11,SE,129,0.0,0.0,28,0.00,,SCT046,0.00,VWS V14.01,2013-06-22 05:29:00,
2013-06-22 01:34:00,61.2,27.8,30.11,SE,129,0.0,0.0,28,0.00,,SCT046,0.00,VWS V14.01,2013-06-22 05:34:00,
2013-06-22 01:39:00,61.0,28.5,30.11,SE,129,0.0,0.0,29,0.00,,SCT046,0.00,VWS V14.01,2013-06-22 05:39:00,
2013-06-22 01:44:00,60.8,28.4,30.11,SE,129,0.0,0.0,29,0.00,,SCT046,0.00,VWS V14.01,2013-06-22 05:44:00,
2013-06-22 01:49:00,60.6,29.0,30.11,SE,129,0.0,0.0,30,0.00,,SCT046,0.00,VWS V14.01,2013-06-22 05:49:00,
2013-06-22 01:54:00,60.4,29.7,30.11,SE,129,0.0,0.0,31,0.00,,SCT046,0.00,VWS V14.01,2013-06-22 05:54:00,
2013-06-22 01:59:00,60.3,31.1,30.11,SE,129,0.0,0.0,33,0.00,,SCT046,0.00,VWS V14.01,2013-06-22 05:59:00,
2013-06-22 02:04:00,60.3,31.8,30.11,SE,129,0.0,0.0,34,0.00,,CLR,0.00,VWS V14.01,2013-06-22 06:04:00,
2013-06-22 02:10:00,60.1,31.6,30.11,SE,129,0.0,0.0,34,0.00,,CLR,0.00,VWS V14.01,2013-06-22 06:10:00,
2013-06-22 02:15:00,60.1,31.6,30.11,SE,129,0.0,0.0,34,0.00,,CLR,0.00,VWS V14.01,2013-06-22 06:15:00,
2013-06-22 02:20:00,60.1,31.6,30.11,SE,129,0.0,0.0,34,0.00,,CLR,0.00,VWS V14.01,2013-06-22 06:20:00,
2013-06-22 02:25:00,60.1,31.6,30.11,SE,129,0.0,0.0,34,0.00,,CLR,0.00,VWS V14.01,2013-06-22 06:25:00,
2013-06-22 02:30:00,60.1,32.4,30.11,SE,129,0.0,0.0,35,0.00,,CLR,0.00,VWS V14.01,2013-06-22 06:30:00,
2013-06-22 02:35:00,59.9,31.5,30.08,SE,129,0.0,0.0,34,0.00,,CLR,0.00,VWS V14.01,2013-06-22 06:35:00,
2013-06-22 02:40:00,59.9,31.5,30.08,SE,129,0.0,0.0,34,0.00,,CLR,0.00,VWS V14.01,2013-06-22 06:40:00,
2013-06-22 02:45:00,59.9,30.8,30.08,SE,129,0.0,0.0,33,0.00,,CLR,0.00,VWS V14.01,2013-06-22 06:45:00,
2013-06-22 02:50:00,60.1,29.4,30.08,SE,129,0.0,0.0,31,0.00,,CLR,0.00,VWS V14.01,2013-06-22 06:50:00,
2013-06-22 02:55:00,60.1,29.4,30.08,SE,129,0.0,0.0,31,0.00,,CLR,0.00,VWS V14.01,2013-06-22 06:55:00,
2013-06-22 03:00:00,60.1,29.4,30.08,SE,129,0.0,0.0,31,0.00,,SCT038,0.00,VWS V14.01,2013-06-22 07:00:00,
2013-06-22 03:05:00,60.1,29.4,30.08,SE,129,0.0,0.0,31,0.00,,SCT038,0.00,VWS V14.01,2013-06-22 07:05:00,
2013-06-22 03:11:00,60.1,29.4,30.08,SE,129,0.0,0.0,31,0.00,,SCT038,0.00,VWS V14.01,2013-06-22 07:11:00,
2013-06-22 03:16:00,60.1,29.4,30.08,SE,129,0.0,0.0,31,0.00,,SCT038,0.00,VWS V14.01,2013-06-22 07:16:00,
2013-06-22 03:21:00,59.9,30.0,30.08,SE,129,0.0,0.0,32,0.00,,SCT038,0.00,VWS V14.01,2013-06-22 07:21:00,
2013-06-22 03:26:00,59.7,30.6,30.08,SE,129,0.0,0.0,33,0.00,,SCT038,0.00,VWS V14.01,2013-06-22 07:26:00,
2013-06-22 03:31:00,59.7,31.3,30.08,SE,129,0.0,0.0,34,0.00,,SCT038,0.00,VWS V14.01,2013-06-22 07:31:00,
2013-06-22 03:36:00,59.5,30.4,30.08,SE,129,0.0,0.0,33,0.00,,SCT038,0.00,VWS V14.01,2013-06-22 07:36:00,
2013-06-22 03:41:00,59.2,30.1,30.08,SE,129,0.0,0.0,33,0.00,,SCT038,0.00,VWS V14.01,2013-06-22 07:41:00,
2013-06-22 03:46:00,59.2,31.6,30.08,SE,129,0.0,0.0,35,0.00,,SCT038,0.00,VWS V14.01,2013-06-22 07:46:00,
2013-06-22 03:51:00,59.2,31.6,30.08,SE,129,0.0,0.0,35,0.00,,SCT038,0.00,VWS V14.01,2013-06-22 07:51:00,
2013-06-22 03:56:00,59.2,31.6,30.08,SE,129,0.0,0.0,35,0.00,,SCT038,0.00,VWS V14.01,2013-06-22 07:56:00,
2013-06-22 04:02:00,59.2,32.3,30.08,SE,129,0.0,0.0,36,0.00,,OVC042,0.00,VWS V14.01,2013-06-22 08:02:00,
2013-06-22 04:07:00,59.4,32.4,30.08,SE,129,0.0,0.0,36,0.00,,OVC042,0.00,VWS V14.01,2013-06-22 08:07:00,
2013-06-22 04:12:00,59.5,32.6,30.08,SE,129,0.0,0.0,36,0.00,,OVC042,0.00,VWS V14.01,2013-06-22 08:12:00,
2013-06-22 04:17:00,59.5,32.6,30.08,SE,129,0.0,0.0,36,0.00,,OVC042,0.00,VWS V14.01,2013-06-22 08:17:00,
2013-06-22 04:22:00,59.4,32.4,30.08,SE,129,0.0,0.0,36,0.00,,OVC042,0.00,VWS V14.01,2013-06-22 08:22:00,
2013-06-22 04:27:00,59.4,32.4,30.08,SE,129,0.0,0.0,36,0.00,,OVC042,0.00,VWS V14.01,2013-06-22 08:27:00,
2013-06-22 04:32:00,59.4,31.7,30.08,SE,129,0.0,0.0,35,0.00,,OVC042,0.00,VWS V14.01,2013-06-22 08:32:00,
2013-06-22 04:37:00,59.2,31.6,30.08,SE,129,0.0,0.0,35,0.00,,OVC042,0.00,VWS V14.01,2013-06-22 08:37:00,
2013-06-22 04:42:00,59.2,31.6,30.08,SE,129,0.0,0.0,35,0.00,,OVC042,0.00,VWS V14.01,2013-06-22 08:42:00,
2013-06-22 04:47:00,59.0,31.4,30.08,SE,129,0.0,0.0,35,0.00,,OVC042,0.00,VWS V14.01,2013-06-22 08:47:00,
2013-06-22 04:53:00,58.8,32.0,30.08,SE,129,0.0,0.0,36,0.00,,OVC042,0.00,VWS V14.01,2013-06-22 08:53:00,
2013-06-22 04:58:00,58.6,31.8,30.08,SE,129,0.0,0.0,36,0.00,,OVC042,0.00,VWS V14.01,2013-06-22 08:58:00,
2013-06-22 05:03:00,58.5,31.6,30.08,SE,129,0.0,0.0,36,0.00,,FEW030,0.00,VWS V14.01,2013-06-22 09:03:00,
2013-06-22 05:08:00,58.3,31.5,30.08,SE,129,0.0,0.0,36,0.00,,FEW030,0.00,VWS V14.01,2013-06-22 09:08:00,
2013-06-22 05:13:00,58.1,31.3,30.08,SE,129,0.0,0.0,36,0.00,,FEW030,0.00,VWS V14.01,2013-06-22 09:13:00,
2013-06-22 05:18:00,58.1,31.3,30.08,SE,129,0.0,0.0,36,0.00,,FEW030,0.00,VWS V14.01,2013-06-22 09:18:00,
2013-06-22 05:23:00,58.3,31.5,30.08,SE,129,0.0,0.0,36,0.00,,FEW030,0.00,VWS V14.01,2013-06-22 09:23:00,
2013-06-22 05:28:00,58.3,31.5,30.08,SE,129,0.0,0.0,36,0.00,,FEW030,0.00,VWS V14.01,2013-06-22 09:28:00,
2013-06-22 05:33:00,58.3,31.5,30.08,SE,129,0.0,0.0,36,0.00,,FEW030,0.00,VWS V14.01,2013-06-22 09:33:00,
2013-06-22 05:38:00,58.1,31.3,30.08,SE,129,0.0,0.0,36,0.00,,FEW030,0.00,VWS V14.01,2013-06-22 09:38:00,
2013-06-22 05:44:00,57.9,31.1,30.08,SE,129,0.0,0.0,36,0.00,,FEW030,0.00,VWS V14.01,2013-06-22 09:44:00,
2013-06-22 05:49:00,57.9,31.1,30.11,SE,129,0.0,0.0,36,0.00,,FEW030,0.00,VWS V14.01,2013-06-22 09:49:00,
2013-06-22 05:54:00,57.7,31.0,30.11,SE,129,0.0,0.0,36,0.00,,FEW030,0.00,VWS V14.01,2013-06-22 09:54:00,
2013-06-22 05:59:00,57.7,31.0,30.11,SE,129,0.0,0.0,36,0.00,,FEW030,0.00,VWS V14.01,2013-06-22 09:59:00,
2013-06-22 06:04:00,57.7,31.7,30.11,SE,129,0.0,0.0,37,0.00,,CLR,0.00,VWS V14.01,2013-06-22 10:04:00,
2013-06-22 06:09:00,57.6,30.8,30.11,SE,129,0.0,0.0,36,0.00,,CLR,0.00,VWS V14.01,2013-06-22 10:09:00,
2013-06-22 06:14:00,57.6,30.8,30.11,SE,129,0.0,0.0,36,0.00,,CLR,0.00,VWS V14.01,2013-06-22 10:14:00,
2013-06-22 06:19:00,57.7,31.7,30.11,SE,129,0.0,0.0,37,0.00,,CLR,0.00,VWS V14.01,2013-06-22 10:19:00,
2013-06-22 06:24:00,57.6,30.8,30.11,SE,129,0.0,0.0,36,0.00,,CLR,0.00,VWS V14.01,2013-06-22 10:24:00,
2013-06-22 06:29:00,57.6,30.8,30.11,SE,129,0.0,0.0,36,0.00,,CLR,0.00,VWS V14.01,2013-06-22 10:29:00,
2013-06-22 06:34:00,57.2,30.5,30.11,SE,129,0.0,0.0,36,0.00,,CLR,0.00,VWS V14.01,2013-06-22 10:34:00,
2013-06-22 06:39:00,57.0,30.4,30.11,SE,129,0.0,0.0,36,0.00,,CLR,0.00,VWS V14.01,2013-06-22 10:39:00,
2013-06-22 06:45:00,57.0,30.4,30.11,SE,129,0.0,0.0,36,0.00,,CLR,0.00,VWS V14.01,2013-06-22 10:45:00,
2013-06-22 06:50:00,56.8,30.2,30.11,SE,129,0.0,0.0,36,0.00,,CLR,0.00,VWS V14.01,2013-06-22 10:50:00,
2013-06-22 06:55:00,57.0,31.0,30.11,SE,129,0.0,0.0,37,0.00,,CLR,0.00,VWS V14.01,2013-06-22 10:55:00,
2013-06-22 07:00:00,57.2,31.2,30.11,SE,129,0.0,0.0,37,0.00,,CLR,0.00,VWS V14.01,2013-06-22 11:00:00,
2013-06-22 07:05:00,57.4,31.3,30.11,SE,129,0.0,0.0,37,0.00,,,0.00,VWS V14.01,2013-06-22 11:05:00,
2013-06-22 07:10:00,57.2,31.2,30.11,SE,129,0.0,0.0,37,0.00,,,0.00,VWS V14.01,2013-06-22 11:10:00,
2013-06-22 07:15:00,57.2,31.2,30.11,SE,129,0.0,0.0,37,0.00,,,0.00,VWS V14.01,2013-06-22 11:15:00,
2013-06-22 07:20:00,57.4,31.3,30.11,SE,129,0.0,0.0,37,0.00,,,0.00,VWS V14.01,2013-06-22 11:20:00,
2013-06-22 07:25:00,57.4,31.3,30.11,SE,129,0.0,0.0,37,0.00,,,0.00,VWS V14.01,2013-06-22 11:25:00,
2013-06-22 07:30:00,57.4,31.3,30.11,SE,129,0.0,0.0,37,0.00,,,0.00,VWS V14.01,2013-06-22 11:30:00,
2013-06-22 07:36:00,57.2,31.2,30.11,SE,129,0.0,0.0,37,0.00,,,0.00,VWS V14.01,2013-06-22 11:36:00,
2013-06-22 07:41:00,57.4,31.3,30.11,SE,129,0.0,0.0,37,0.00,,,0.00,VWS V14.01,2013-06-22 11:41:00,
2013-06-22 07:46:00,57.4,31.3,30.11,SE,129,0.0,0.0,37,0.00,,,0.00,VWS V14.01,2013-06-22 11:46:00,
2013-06-22 07:51:00,57.4,31.3,30.08,SE,129,0.0,0.0,37,0.00,,,0.00,VWS V14.01,2013-06-22 11:51:00,
2013-06-22 07:56:00,57.6,31.5,30.08,SW,224,0.0,0.0,37,0.00,,,0.00,VWS V14.01,2013-06-22 11:56:00,
2013-06-22 08:01:00,57.9,32.5,30.08,SW,224,0.0,0.0,38,0.00,,,0.00,VWS V14.01,2013-06-22 12:01:00,
2013-06-22 08:06:00,57.9,32.5,30.11,SW,224,0.0,0.0,38,0.00,,,0.00,VWS V14.01,2013-06-22 12:06:00,
2013-06-22 08:11:00,58.1,32.7,30.11,SW,224,0.0,0.0,38,0.00,,,0.00,VWS V14.01,2013-06-22 12:11:00,
2013-06-22 08:16:00,58.3,32.8,30.11,SW,224,0.0,0.0,38,0.00,,,0.00,VWS V14.01,2013-06-22 12:16:00,
2013-06-22 08:22:00,58.3,33.5,30.11,SW,224,0.0,0.0,39,0.00,,,0.00,VWS V14.01,2013-06-22 12:22:00,
2013-06-22 08:27:00,58.5,33.6,30.11,SW,224,0.0,0.0,39,0.00,,,0.00,VWS V14.01,2013-06-22 12:27:00,
2013-06-22 08:32:00,58.6,33.1,30.11,SW,224,0.0,0.0,38,0.00,,,0.00,VWS V14.01,2013-06-22 12:32:00,
2013-06-22 08:37:00,58.8,33.3,30.11,SW,224,0.0,0.0,38,0.00,,,0.00,VWS V14.01,2013-06-22 12:37:00,
2013-06-22 08:42:00,58.8,33.9,30.11,WNW,283,0.0,0.0,39,0.00,,,0.00,VWS V14.01,2013-06-22 12:42:00,
2013-06-22 08:47:00,59.2,33.6,30.11,WNW,283,0.0,0.0,38,0.00,,,0.00,VWS V14.01,2013-06-22 12:47:00,
2013-06-22 08:52:00,59.4,33.8,30.11,WNW,283,0.0,0.0,38,0.00,,,0.00,VWS V14.01,2013-06-22 12:52:00,
2013-06-22 08:57:00,59.5,33.9,30.11,SSE,160,0.0,0.0,38,0.00,,,0.00,VWS V14.01,2013-06-22 12:57:00,
2013-06-22 09:02:00,59.7,34.7,30.11,SSE,160,0.0,0.0,39,0.00,,CLR,0.00,VWS V14.01,2013-06-22 13:02:00,
2013-06-22 09:07:00,59.9,34.2,30.11,SE,138,0.0,0.0,38,0.00,,CLR,0.00,VWS V14.01,2013-06-22 13:07:00,
2013-06-22 09:13:00,59.9,33.6,30.11,SSW,200,0.0,0.0,37,0.00,,CLR,0.00,VWS V14.01,2013-06-22 13:13:00,
2013-06-22 09:18:00,60.3,33.2,30.11,SSW,202,2.2,2.7,36,0.00,,CLR,0.00,VWS V14.01,2013-06-22 13:18:00,
2013-06-22 09:23:00,60.8,33.7,30.11,SSW,202,0.0,2.7,36,0.00,,CLR,0.00,VWS V14.01,2013-06-22 13:23:00,
2013-06-22 09:28:00,61.2,32.6,30.11,WSW,251,3.1,3.1,34,0.00,,CLR,0.00,VWS V14.01,2013-06-22 13:28:00,
2013-06-22 09:33:00,61.3,32.8,30.11,SSW,207,2.2,4.0,34,0.00,,CLR,0.00,VWS V14.01,2013-06-22 13:33:00,
2013-06-22 09:38:00,61.5,32.2,30.11,WSW,258,2.2,2.2,33,0.00,,CLR,0.00,VWS V14.01,2013-06-22 13:38:00,
2013-06-22 09:43:00,61.9,32.5,30.11,WSW,247,0.0,2.2,33,0.00,,CLR,0.00,VWS V14.01,2013-06-22 13:43:00,
2013-06-22 09:48:00,62.2,28.8,30.11,WSW,258,2.7,2.7,28,0.00,,CLR,0.00,VWS V14.01,2013-06-22 13:48:00,
2013-06-22 09:53:00,63.0,32.7,30.11,WSW,239,0.0,0.0,32,0.00,,CLR,0.00,VWS V14.01,2013-06-22 13:53:00,
2013-06-22 09:58:00,63.1,25.8,30.11,SW,218,2.2,2.2,24,0.00,,CLR,0.00,VWS V14.01,2013-06-22 13:58:00,
2013-06-22 10:04:00,63.5,26.1,30.14,South,173,0.0,0.0,24,0.00,,CLR,0.00,VWS V14.01,2013-06-22 14:04:00,
2013-06-22 10:09:00,64.0,26.5,30.14,SSW,198,2.2,2.7,24,0.00,,CLR,0.00,VWS V14.01,2013-06-22 14:09:00,
2013-06-22 10:14:00,64.4,26.9,30.14,SSW,201,0.0,2.7,24,0.00,,CLR,0.00,VWS V14.01,2013-06-22 14:14:00,
2013-06-22 10:19:00,64.8,26.1,30.11,SSW,203,4.9,4.9,23,0.00,,CLR,0.00,VWS V14.01,2013-06-22 14:19:00,
2013-06-22 10:24:00,65.7,26.9,30.11,SSW,210,2.2,2.2,23,0.00,,CLR,0.00,VWS V14.01,2013-06-22 14:24:00,
2013-06-22 10:29:00,67.6,25.2,30.11,SW,223,0.0,3.1,20,0.00,,CLR,0.00,VWS V14.01,2013-06-22 14:29:00,
2013-06-22 10:34:00,70.0,23.2,30.11,SW,229,0.0,0.0,17,0.00,,CLR,0.00,VWS V14.01,2013-06-22 14:34:00,
2013-06-22 10:40:00,70.9,23.9,30.11,South,184,2.7,3.6,17,0.00,,CLR,0.00,VWS V14.01,2013-06-22 14:40:00,
2013-06-22 10:45:00,72.3,23.6,30.11,WSW,248,2.7,2.7,16,0.00,,CLR,0.00,VWS V14.01,2013-06-22 14:45:00,
2013-06-22 10:50:00,74.3,25.2,30.11,SSW,198,3.1,3.1,16,0.00,,CLR,0.00,VWS V14.01,2013-06-22 14:50:00,
2013-06-22 10:55:00,75.7,24.9,30.11,SE,129,2.2,2.7,15,0.00,,CLR,0.00,VWS V14.01,2013-06-22 14:55:00,
2013-06-22 11:00:00,76.8,25.7,30.11,ESE,118,2.7,2.7,15,0.00,,CLR,0.00,VWS V14.01,2013-06-22 15:00:00,
2013-06-22 11:05:00,77.7,26.4,30.11,SSE,156,5.4,5.4,15,0.00,,CLR,0.00,VWS V14.01,2013-06-22 15:05:00,
2013-06-22 11:10:00,77.7,26.4,30.11,West,261,0.0,3.1,15,0.00,,CLR,0.00,VWS V14.01,2013-06-22 15:10:00,
2013-06-22 11:15:00,78.1,26.7,30.11,ENE,59,2.7,4.0,15,0.00,,CLR,0.00,VWS V14.01,2013-06-22 15:15:00,
2013-06-22 11:20:00,78.8,27.3,30.11,SW,220,3.1,5.4,15,0.00,,CLR,0.00,VWS V14.01,2013-06-22 15:20:00,
2013-06-22 11:25:00,79.7,28.0,30.11,East,95,2.2,2.2,15,0.00,,CLR,0.00,VWS V14.01,2013-06-22 15:25:00,
2013-06-22 11:30:00,80.1,28.3,30.11,East,90,2.2,2.2,15,0.00,,CLR,0.00,VWS V14.01,2013-06-22 15:30:00,
2013-06-22 11:35:00,80.2,28.4,30.11,West,259,2.7,3.1,15,0.00,,CLR,0.00,VWS V14.01,2013-06-22 15:35:00,
2013-06-22 11:40:00,80.1,28.3,30.11,South,181,0.0,2.2,15,0.00,,CLR,0.00,VWS V14.01,2013-06-22 15:40:00,
2013-06-22 11:45:00,81.3,27.6,30.11,SSE,160,2.7,3.6,14,0.00,,CLR,0.00,VWS V14.01,2013-06-22 15:45:00,
2013-06-22 11:50:00,81.5,27.8,30.11,SE,143,3.6,3.6,14,0.00,,CLR,0.00,VWS V14.01,2013-06-22 15:50:00,
2013-06-22 11:56:00,81.9,28.0,30.11,SSE,149,0.0,3.1,14,0.00,,CLR,0.00,VWS V14.01,2013-06-22 15:56:00,
2013-06-22 12:01:00,82.6,28.6,30.11,SE,140,0.0,2.7,14,0.00,,CLR,0.00,VWS V14.01,2013-06-22 16:01:00,
2013-06-22 12:06:00,82.9,28.9,30.11,SSW,200,4.0,4.0,14,0.00,,CLR,0.00,VWS V14.01,2013-06-22 16:06:00,
2013-06-22 12:11:00,82.4,28.5,30.11,WSW,244,2.7,2.7,14,0.00,,CLR,0.00,VWS V14.01,2013-06-22 16:11:00,
2013-06-22 12:16:00,82.6,28.6,30.11,WSW,247,3.1,4.0,14,0.00,,CLR,0.00,VWS V14.01,2013-06-22 16:16:00,
2013-06-22 12:21:00,82.8,28.8,30.11,WSW,246,4.0,4.0,14,0.00,,CLR,0.00,VWS V14.01,2013-06-22 16:21:00,
2013-06-22 12:26:00,83.3,29.2,30.11,NW,318,3.6,3.6,14,0.00,,CLR,0.00,VWS V14.01,2013-06-22 16:26:00,
2013-06-22 12:31:00,83.5,29.3,30.11,West,275,4.0,5.8,14,0.00,,CLR,0.00,VWS V14.01,2013-06-22 16:31:00,
2013-06-22 12:36:00,82.9,28.9,30.11,South,172,0.0,2.2,14,0.00,,CLR,0.00,VWS V14.01,2013-06-22 16:36:00,
2013-06-22 12:41:00,83.1,29.0,30.11,SSW,211,2.7,3.6,14,0.00,,CLR,0.00,VWS V14.01,2013-06-22 16:41:00,
2013-06-22 12:46:00,83.5,29.3,30.11,SW,218,5.4,8.1,14,0.00,,CLR,0.00,VWS V14.01,2013-06-22 16:46:00,
2013-06-22 12:51:00,83.8,29.6,30.11,SSW,210,0.0,2.7,14,0.00,,CLR,0.00,VWS V14.01,2013-06-22 16:51:00,
2013-06-22 12:57:00,85.8,29.4,30.11,SSW,198,3.1,3.1,13,0.00,,CLR,0.00,VWS V14.01,2013-06-22 16:57:00,
2013-06-22 13:02:00,85.8,29.4,30.11,West,265,2.7,4.0,13,0.00,,CLR,0.00,VWS V14.01,2013-06-22 17:02:00,
2013-06-22 13:07:00,85.5,29.1,30.11,South,191,2.2,4.0,13,0.00,,CLR,0.00,VWS V14.01,2013-06-22 17:07:00,
2013-06-22 13:12:00,86.2,29.6,30.11,WSW,240,3.6,4.9,13,0.00,,CLR,0.00,VWS V14.01,2013-06-22 17:12:00,
2013-06-22 13:17:00,85.3,28.9,30.11,SSW,197,2.2,3.6,13,0.00,,CLR,0.00,VWS V14.01,2013-06-22 17:17:00,
2013-06-22 13:22:00,85.3,28.9,30.11,SW,226,3.6,3.6,13,0.00,,CLR,0.00,VWS V14.01,2013-06-22 17:22:00,
2013-06-22 13:27:00,85.8,29.4,30.11,SSE,162,0.0,0.0,13,0.00,,CLR,0.00,VWS V14.01,2013-06-22 17:27:00,
2013-06-22 13:32:00,86.4,29.8,30.11,SSE,150,2.7,2.7,13,0.00,,CLR,0.00,VWS V14.01,2013-06-22 17:32:00,
2013-06-22 13:37:00,85.1,28.8,30.11,West,262,0.0,0.0,13,0.00,,CLR,0.00,VWS V14.01,2013-06-22 17:37:00,
2013-06-22 13:42:00,85.3,28.9,30.11,SW,234,2.7,2.7,13,0.00,,CLR,0.00,VWS V14.01,2013-06-22 17:42:00,
2013-06-22 13:47:00,86.2,29.6,30.11,NW,312,0.0,2.2,13,0.00,,CLR,0.00,VWS V14.01,2013-06-22 17:47:00,
2013-06-22 13:52:00,87.1,30.3,30.11,East,89,2.7,2.7,13,0.00,,CLR,0.00,VWS V14.01,2013-06-22 17:52:00,
2013-06-22 13:57:00,88.5,31.5,30.11,North,353,2.2,2.2,13,0.00,,CLR,0.00,VWS V14.01,2013-06-22 17:57:00,
2013-06-22 14:03:00,89.2,32.0,30.11,South,172,4.0,4.0,13,0.00,,CLR,0.00,VWS V14.01,2013-06-22 18:03:00,
2013-06-22 14:08:00,89.4,32.2,30.11,SW,229,2.2,2.7,13,0.00,,CLR,0.00,VWS V14.01,2013-06-22 18:08:00,
2013-06-22 14:13:00,88.9,31.7,30.11,SSW,193,5.4,5.4,13,0.00,,CLR,0.00,VWS V14.01,2013-06-22 18:13:00,
2013-06-22 14:18:00,89.2,32.0,30.11,SSW,193,5.4,5.4,13,0.00,,CLR,0.00,VWS V14.01,2013-06-22 18:18:00,
2013-06-22 14:23:00,89.2,32.0,30.11,West,275,2.7,3.6,13,0.00,,CLR,0.00,VWS V14.01,2013-06-22 18:23:00,
2013-06-22 14:28:00,90.1,30.7,30.11,SW,234,0.0,0.0,12,0.00,,CLR,0.00,VWS V14.01,2013-06-22 18:28:00,
2013-06-22 14:33:00,91.0,31.4,30.08,West,273,4.0,4.0,12,0.00,,CLR,0.00,VWS V14.01,2013-06-22 18:33:00,
2013-06-22 14:38:00,89.8,30.5,30.08,WSW,252,2.7,3.1,12,0.00,,CLR,0.00,VWS V14.01,2013-06-22 18:38:00,
2013-06-22 14:44:00,90.0,30.6,30.08,SW,226,3.1,3.1,12,0.00,,CLR,0.00,VWS V14.01,2013-06-22 18:44:00,
2013-06-22 14:49:00,90.1,30.7,30.08,West,276,4.0,4.0,12,0.00,,CLR,0.00,VWS V14.01,2013-06-22 18:49:00,
2013-06-22 14:54:00,90.3,30.9,30.08,WSW,247,3.1,3.1,12,0.00,,CLR,0.00,VWS V14.01,2013-06-22 18:54:00,
2013-06-22 14:59:00,90.7,31.2,30.08,WNW,293,2.7,2.7,12,0.00,,CLR,0.00,VWS V14.01,2013-06-22 18:59:00,
2013-06-22 15:04:00,91.2,31.6,30.08,SW,228,0.0,0.0,12,0.00,,CLR,0.00,VWS V14.01,2013-06-22 19:04:00,
2013-06-22 15:09:00,92.1,32.3,30.08,SW,218,3.6,5.8,12,0.00,,CLR,0.00,VWS V14.01,2013-06-22 19:09:00,
2013-06-22 15:14:00,90.0,30.6,30.08,South,188,0.0,3.1,12,0.00,,CLR,0.00,VWS V14.01,2013-06-22 19:14:00,
2013-06-22 15:19:00,89.8,30.5,30.08,WNW,283,0.0,2.7,12,0.00,,CLR,0.00,VWS V14.01,2013-06-22 19:19:00,
2013-06-22 15:24:00,91.2,31.6,30.08,SW,219,3.1,3.1,12,0.00,,CLR,0.00,VWS V14.01,2013-06-22 19:24:00,
2013-06-22 15:29:00,91.6,31.9,30.08,SW,236,0.0,0.0,12,0.00,,CLR,0.00,VWS V14.01,2013-06-22 19:29:00,
2013-06-22 15:34:00,91.6,31.9,30.08,SE,127,3.6,3.6,12,0.00,,CLR,0.00,VWS V14.01,2013-06-22 19:34:00,
2013-06-22 15:39:00,91.4,31.7,30.08,SSE,159,5.4,5.4,12,0.00,,CLR,0.00,VWS V14.01,2013-06-22 19:39:00,
2013-06-22 15:44:00,91.2,31.6,30.08,SSE,167,2.7,3.1,12,0.00,,CLR,0.00,VWS V14.01,2013-06-22 19:44:00,
2013-06-22 15:50:00,91.8,32.0,30.08,SSE,167,2.2,2.2,12,0.00,,CLR,0.00,VWS V14.01,2013-06-22 19:50:00,
2013-06-22 15:55:00,91.0,31.4,30.08,South,186,3.1,3.1,12,0.00,,CLR,0.00,VWS V14.01,2013-06-22 19:55:00,
2013-06-22 16:00:00,90.3,30.9,30.08,East,85,2.7,3.6,12,0.00,,CLR,0.00,VWS V14.01,2013-06-22 20:00:00,
2013-06-22 16:05:00,90.9,31.3,30.08,SW,222,3.6,3.6,12,0.00,,CLR,0.00,VWS V14.01,2013-06-22 20:05:00,
2013-06-22 16:10:00,90.5,31.0,30.08,WSW,250,0.0,0.0,12,0.00,,CLR,0.00,VWS V14.01,2013-06-22 20:10:00,
2013-06-22 16:15:00,89.8,30.5,30.08,WSW,237,2.7,2.7,12,0.00,,CLR,0.00,VWS V14.01,2013-06-22 20:15:00,
2013-06-22 16:20:00,89.8,30.5,30.08,SW,231,3.1,3.1,12,0.00,,CLR,0.00,VWS V14.01,2013-06-22 20:20:00,
2013-06-22 16:25:00,89.8,30.5,30.08,West,259,2.7,2.7,12,0.00,,CLR,0.00,VWS V14.01,2013-06-22 20:25:00,
2013-06-22 16:30:00,90.3,30.9,30.08,SW,230,0.0,4.0,12,0.00,,CLR,0.00,VWS V14.01,2013-06-22 20:30:00,
2013-06-22 16:35:00,91.0,31.4,30.05,SE,133,3.1,3.1,12,0.00,,CLR,0.00,VWS V14.01,2013-06-22 20:35:00,
2013-06-22 16:41:00,90.1,30.7,30.05,SW,232,2.2,3.1,12,0.00,,CLR,0.00,VWS V14.01,2013-06-22 20:41:00,
2013-06-22 16:46:00,89.8,30.5,30.05,South,169,2.7,3.6,12,0.00,,CLR,0.00,VWS V14.01,2013-06-22 20:46:00,
2013-06-22 16:51:00,89.1,31.9,30.05,SE,143,2.7,3.1,13,0.00,,CLR,0.00,VWS V14.01,2013-06-22 20:51:00,
2013-06-22 16:56:00,88.2,31.2,30.05,SSE,153,0.0,2.7,13,0.00,,CLR,0.00,VWS V14.01,2013-06-22 20:56:00,
2013-06-22 17:01:00,87.8,30.9,30.05,NW,305,4.0,4.0,13,0.00,,CLR,0.00,VWS V14.01,2013-06-22 21:01:00,
2013-06-22 17:06:00,86.5,29.9,30.05,SW,228,2.7,3.6,13,0.00,,CLR,0.00,VWS V14.01,2013-06-22 21:06:00,
2013-06-22 17:11:00,85.1,28.8,30.05,West,262,0.0,2.2,13,0.00,,CLR,0.00,VWS V14.01,2013-06-22 21:11:00,
2013-06-22 17:16:00,85.6,29.2,30.05,WSW,254,5.4,5.4,13,0.00,,CLR,0.00,VWS V14.01,2013-06-22 21:16:00,
2013-06-22 17:21:00,86.2,29.6,30.05,SW,215,0.0,0.0,13,0.00,,CLR,0.00,VWS V14.01,2013-06-22 21:21:00,
2013-06-22 17:26:00,86.5,29.9,30.05,SW,219,2.7,2.7,13,0.00,,CLR,0.00,VWS V14.01,2013-06-22 21:26:00,
2013-06-22 17:31:00,86.4,29.8,30.05,WSW,238,0.0,2.7,13,0.00,,CLR,0.00,VWS V14.01,2013-06-22 21:31:00,
2013-06-22 17:36:00,85.6,29.2,30.05,West,266,2.2,2.7,13,0.00,,CLR,0.00,VWS V14.01,2013-06-22 21:36:00,
2013-06-22 17:41:00,84.7,28.5,30.05,SSE,159,2.7,2.7,13,0.00,,CLR,0.00,VWS V14.01,2013-06-22 21:41:00,
2013-06-22 17:47:00,82.9,28.9,30.05,SW,227,3.6,5.4,14,0.00,,CLR,0.00,VWS V14.01,2013-06-22 21:47:00,
2013-06-22 17:52:00,80.8,27.2,30.05,ENE,78,3.1,3.1,14,0.00,,CLR,0.00,VWS V14.01,2013-06-22 21:52:00,
2013-06-22 17:57:00,78.8,27.3,30.05,SSW,192,2.7,4.0,15,0.00,,CLR,0.00,VWS V14.01,2013-06-22 21:57:00,
2013-06-22 18:02:00,76.3,25.3,30.05,SSE,151,2.2,2.2,15,0.00,,CLR,0.00,VWS V14.01,2013-06-22 22:02:00,
2013-06-22 18:07:00,74.7,25.5,30.05,SSE,159,3.1,4.0,16,0.00,,CLR,0.00,VWS V14.01,2013-06-22 22:07:00,
2013-06-22 18:12:00,73.6,24.7,30.05,WSW,253,3.6,3.6,16,0.00,,CLR,0.00,VWS V14.01,2013-06-22 22:12:00,
2013-06-22 18:17:00,72.7,23.9,30.05,NNW,343,2.7,2.7,16,0.00,,CLR,0.00,VWS V14.01,2013-06-22 22:17:00,
2013-06-22 18:22:00,72.1,23.5,30.05,SW,229,0.0,2.7,16,0.00,,CLR,0.00,VWS V14.01,2013-06-22 22:22:00,
2013-06-22 18:28:00,72.0,23.4,30.05,SSW,211,3.6,3.6,16,0.00,,CLR,0.00,VWS V14.01,2013-06-22 22:28:00,
2013-06-22 18:33:00,71.6,23.1,30.05,South,177,3.1,3.6,16,0.00,,CLR,0.00,VWS V14.01,2013-06-22 22:33:00,
2013-06-22 18:38:00,71.4,24.4,30.05,SSE,165,0.0,0.0,17,0.00,,CLR,0.00,VWS V14.01,2013-06-22 22:38:00,
2013-06-22 18:43:00,71.1,24.1,30.05,ESE,122,0.0,0.0,17,0.00,,CLR,0.00,VWS V14.01,2013-06-22 22:43:00,
2013-06-22 18:48:00,70.9,23.9,30.05,SSW,205,0.0,0.0,17,0.00,,CLR,0.00,VWS V14.01,2013-06-22 22:48:00,
2013-06-22 18:53:00,70.7,23.8,30.05,ESE,112,0.0,0.0,17,0.00,,CLR,0.00,VWS V14.01,2013-06-22 22:53:00,
2013-06-22 18:58:00,70.3,23.5,30.05,ESE,109,2.2,2.7,17,0.00,,CLR,0.00,VWS V14.01,2013-06-22 22:58:00,
2013-06-22 19:03:00,70.2,23.4,30.05,SSE,164,2.7,3.1,17,0.00,,CLR,0.00,VWS V14.01,2013-06-22 23:03:00,
2013-06-22 19:08:00,70.0,23.2,30.05,South,184,2.2,3.6,17,0.00,,CLR,0.00,VWS V14.01,2013-06-22 23:08:00,
2013-06-22 19:14:00,69.6,22.9,30.05,SSE,160,4.0,4.0,17,0.00,,CLR,0.00,VWS V14.01,2013-06-22 23:14:00,
2013-06-22 19:19:00,69.4,22.8,30.05,ESE,112,0.0,2.2,17,0.00,,CLR,0.00,VWS V14.01,2013-06-22 23:19:00,
2013-06-22 19:24:00,69.3,22.6,30.05,ESE,115,2.2,2.7,17,0.00,,CLR,0.00,VWS V14.01,2013-06-22 23:24:00,
2013-06-22 19:29:00,69.1,22.5,30.05,SSW,207,3.6,3.6,17,0.00,,CLR,0.00,VWS V14.01,2013-06-22 23:29:00,
2013-06-22 19:34:00,68.7,22.2,30.05,SSW,212,0.0,0.0,17,0.00,,CLR,0.00,VWS V14.01,2013-06-22 23:34:00,
2013-06-22 19:39:00,68.7,22.2,30.05,SE,137,0.0,2.2,17,0.00,,CLR,0.00,VWS V14.01,2013-06-22 23:39:00,
2013-06-22 19:44:00,68.4,21.9,30.05,SE,144,0.0,0.0,17,0.00,,CLR,0.00,VWS V14.01,2013-06-22 23:44:00,
2013-06-22 19:49:00,68.0,21.6,30.05,SE,144,0.0,0.0,17,0.00,,CLR,0.00,VWS V14.01,2013-06-22 23:49:00,
2013-06-22 19:54:00,67.8,21.5,30.05,South,189,2.7,3.1,17,0.00,,CLR,0.00,VWS V14.01,2013-06-22 23:54:00,
2013-06-22 20:00:00,67.5,21.2,30.05,SSW,194,0.0,0.0,17,0.00,,CLR,0.00,VWS V14.01,2013-06-23 00:00:00,
2013-06-22 20:05:00,67.1,20.9,30.05,SSW,194,0.0,0.0,17,0.00,,CLR,0.00,VWS V14.01,2013-06-23 00:05:00,
2013-06-22 20:10:00,66.7,20.6,30.05,South,174,0.0,0.0,17,0.00,,CLR,0.00,VWS V14.01,2013-06-23 00:10:00,
2013-06-22 20:15:00,66.4,20.3,30.05,South,174,2.7,2.7,17,0.00,,CLR,0.00,VWS V14.01,2013-06-23 00:15:00,
2013-06-22 20:20:00,66.2,20.1,30.05,South,174,0.0,0.0,17,0.00,,CLR,0.00,VWS V14.01,2013-06-23 00:20:00,
2013-06-22 20:25:00,65.8,21.2,30.05,South,174,0.0,0.0,18,0.00,,CLR,0.00,VWS V14.01,2013-06-23 00:25:00,
2013-06-22 20:30:00,65.5,20.9,30.05,South,174,0.0,0.0,18,0.00,,CLR,0.00,VWS V14.01,2013-06-23 00:30:00,
2013-06-22 20:35:00,65.3,20.7,30.05,South,174,0.0,0.0,18,0.00,,CLR,0.00,VWS V14.01,2013-06-23 00:35:00,
2013-06-22 20:40:00,65.1,23.1,30.05,South,172,0.0,2.2,20,0.00,,CLR,0.00,VWS V14.01,2013-06-23 00:40:00,
2013-06-22 20:45:00,64.9,22.9,30.05,South,172,0.0,0.0,20,0.00,,CLR,0.00,VWS V14.01,2013-06-23 00:45:00,
2013-06-22 20:51:00,64.8,22.8,30.05,South,172,0.0,0.0,20,0.00,,CLR,0.00,VWS V14.01,2013-06-23 00:51:00,
2013-06-22 20:56:00,64.4,22.5,30.05,South,172,0.0,0.0,20,0.00,,CLR,0.00,VWS V14.01,2013-06-23 00:56:00,
2013-06-22 21:01:00,64.4,22.5,30.05,South,172,0.0,0.0,20,0.00,,CLR,0.00,VWS V14.01,2013-06-23 01:01:00,
2013-06-22 21:06:00,64.2,23.5,30.05,South,172,0.0,0.0,21,0.00,,CLR,0.00,VWS V14.01,2013-06-23 01:06:00,
2013-06-22 21:11:00,64.0,23.3,30.05,South,172,0.0,0.0,21,0.00,,CLR,0.00,VWS V14.01,2013-06-23 01:11:00,
2013-06-22 21:16:00,64.2,23.5,30.05,South,172,0.0,0.0,21,0.00,,CLR,0.00,VWS V14.01,2013-06-23 01:16:00,
2013-06-22 21:21:00,64.6,22.6,30.08,South,172,0.0,0.0,20,0.00,,CLR,0.00,VWS V14.01,2013-06-23 01:21:00,
2013-06-22 21:26:00,64.8,20.3,30.08,South,172,0.0,0.0,18,0.00,,CLR,0.00,VWS V14.01,2013-06-23 01:26:00,
2013-06-22 21:31:00,64.8,20.3,30.08,South,172,0.0,0.0,18,0.00,,CLR,0.00,VWS V14.01,2013-06-23 01:31:00,
2013-06-22 21:36:00,64.4,20.0,30.08,South,172,0.0,0.0,18,0.00,,CLR,0.00,VWS V14.01,2013-06-23 01:36:00,
2013-06-22 21:41:00,64.4,20.0,30.08,South,172,0.0,0.0,18,0.00,,CLR,0.00,VWS V14.01,2013-06-23 01:41:00,
2013-06-22 21:46:00,64.2,19.9,30.08,South,172,0.0,0.0,18,0.00,,CLR,0.00,VWS V14.01,2013-06-23 01:46:00,
2013-06-22 21:51:00,64.0,19.7,30.08,South,172,0.0,0.0,18,0.00,,CLR,0.00,VWS V14.01,2013-06-23 01:51:00,
2013-06-22 21:56:00,63.9,19.6,30.08,South,172,0.0,0.0,18,0.00,,CLR,0.00,VWS V14.01,2013-06-23 01:56:00,
2013-06-22 22:02:00,63.5,19.3,30.08,South,172,0.0,0.0,18,0.00,,CLR,0.00,VWS V14.01,2013-06-23 02:02:00,
2013-06-22 22:07:00,63.5,19.3,30.08,South,172,0.0,0.0,18,0.00,,CLR,0.00,VWS V14.01,2013-06-23 02:07:00,
2013-06-22 22:12:00,63.7,19.4,30.08,South,172,0.0,0.0,18,0.00,,CLR,0.00,VWS V14.01,2013-06-23 02:12:00,
2013-06-22 22:17:00,63.5,22.9,30.08,South,172,2.2,2.7,21,0.00,,CLR,0.00,VWS V14.01,2013-06-23 02:17:00,
2013-06-22 22:22:00,63.5,22.9,30.08,South,172,0.0,2.7,21,0.00,,CLR,0.00,VWS V14.01,2013-06-23 02:22:00,
2013-06-22 22:27:00,63.3,22.8,30.08,South,172,2.2,2.2,21,0.00,,CLR,0.00,VWS V14.01,2013-06-23 02:27:00,
2013-06-22 22:32:00,63.3,24.9,30.08,South,172,0.0,2.2,23,0.00,,CLR,0.00,VWS V14.01,2013-06-23 02:32:00,
2013-06-22 22:37:00,63.3,24.9,30.08,South,172,0.0,2.7,23,0.00,,CLR,0.00,VWS V14.01,2013-06-23 02:37:00,
2013-06-22 22:42:00,63.3,25.9,30.08,South,172,2.2,2.2,24,0.00,,CLR,0.00,VWS V14.01,2013-06-23 02:42:00,
2013-06-22 22:47:00,63.1,25.8,30.08,South,172,2.2,2.7,24,0.00,,CLR,0.00,VWS V14.01,2013-06-23 02:47:00,
2013-06-22 22:52:00,63.1,25.8,30.08,South,172,0.0,0.0,24,0.00,,CLR,0.00,VWS V14.01,2013-06-23 02:52:00,
2013-06-22 22:57:00,63.0,25.6,30.08,South,172,0.0,0.0,24,0.00,,CLR,0.00,VWS V14.01,2013-06-23 02:57:00,
2013-06-22 23:03:00,63.0,25.6,30.08,South,172,0.0,0.0,24,0.00,,CLR,0.00,VWS V14.01,2013-06-23 03:03:00,
2013-06-22 23:08:00,62.8,24.5,30.08,South,172,0.0,2.2,23,0.00,,CLR,0.00,VWS V14.01,2013-06-23 03:08:00,
2013-06-22 23:13:00,62.8,22.3,30.08,South,172,0.0,0.0,21,0.00,,CLR,0.00,VWS V14.01,2013-06-23 03:13:00,
2013-06-22 23:18:00,63.0,24.6,30.08,South,172,0.0,0.0,23,0.00,,CLR,0.00,VWS V14.01,2013-06-23 03:18:00,
2013-06-22 23:23:00,63.0,24.6,30.08,South,172,0.0,0.0,23,0.00,,CLR,0.00,VWS V14.01,2013-06-23 03:23:00,
2013-06-22 23:28:00,63.0,24.6,30.08,South,172,0.0,0.0,23,0.00,,CLR,0.00,VWS V14.01,2013-06-23 03:28:00,
2013-06-22 23:33:00,63.0,22.5,30.08,South,172,0.0,2.2,21,0.00,,CLR,0.00,VWS V14.01,2013-06-23 03:33:00,
2013-06-22 23:38:00,63.1,22.6,30.08,South,172,0.0,0.0,21,0.00,,CLR,0.00,VWS V14.01,2013-06-23 03:38:00,
2013-06-22 23:43:00,63.1,22.6,30.08,South,172,0.0,0.0,21,0.00,,CLR,0.00,VWS V14.01,2013-06-23 03:43:00,
2013-06-22 23:48:00,63.1,24.8,30.08,South,172,0.0,0.0,23,0.00,,CLR,0.00,VWS V14.01,2013-06-23 03:48:00,
2013-06-22 23:54:00,63.1,25.8,30.08,South,172,0.0,0.0,24,0.00,,CLR,0.00,VWS V14.01,2013-06-23 03:54:00,
2013-06-22 23:59:00,63.0,25.6,30.08,South,172,0.0,0.0,24,0.00,,CLR,0.00,VWS V14.01,2013-06-23 03:59:00,